GFSSW_850_thetae_000.txt.gz
Theta_e
309 310 311 312 314 314 316 316 316 317 318 319 320 320 319 320 321 322 322 323 321 320 320 325 337 342 342 342 342 343 344 342 342 344 345 343 345 347 347 349 349 348 347 347 347
308 308 309 309 311 312 313 314 316 316 317 318 319 320 320 320 320 321 323 320 320 320 324 335 336 341 338 334 337 342 345 342 340 342 345 344 344 348 349 348 348 350 348 347 346
308 308 308 309 309 310 311 312 313 315 316 317 318 319 320 320 321 323 323 320 320 319 328 330 329 335 330 328 332 338 344 342 341 341 343 344 345 347 345 349 346 349 349 347 347
309 309 309 309 309 309 310 311 311 313 315 317 317 318 318 318 323 320 321 322 321 319 327 328 325 328 326 329 330 336 338 338 341 341 344 345 345 346 345 344 344 347 348 348 348
307 308 309 309 309 309 310 311 311 312 313 315 317 317 317 323 322 321 321 321 320 320 323 325 323 325 327 330 331 333 335 335 336 340 342 345 346 346 346 345 345 348 349 348 348
307 307 308 309 310 310 310 311 311 312 312 313 315 316 316 322 321 321 323 322 326 324 323 323 323 324 327 329 332 333 333 334 335 340 343 346 347 347 346 344 349 349 350 349 348
306 307 307 308 309 310 310 311 311 312 312 312 314 314 317 321 321 320 321 324 328 326 324 323 323 324 326 330 331 332 336 341 340 342 345 345 350 349 347 347 351 350 350 349 349
305 306 307 307 308 309 310 311 312 312 313 312 313 316 323 323 321 324 327 325 322 327 325 324 323 324 326 330 331 334 337 341 343 344 345 346 346 348 348 349 352 351 351 350 349
304 305 306 307 307 308 309 311 312 312 313 312 317 321 326 325 325 327 327 324 323 325 323 323 323 325 326 331 335 336 339 339 346 345 348 348 345 347 348 349 350 351 349 349 350
302 303 305 306 307 308 309 311 312 313 315 319 323 327 326 325 328 325 328 323 324 325 324 323 324 327 329 331 336 338 339 339 341 347 348 349 346 349 349 349 348 351 350 349 349
302 303 304 305 306 307 309 310 320 322 319 324 323 325 324 324 324 325 326 322 323 325 324 323 325 326 329 332 334 336 339 340 340 345 348 347 346 347 350 349 349 350 351 350 348
302 302 303 304 306 307 308 310 312 311 314 316 316 317 319 320 320 321 324 326 324 326 326 324 324 326 328 330 333 336 337 339 340 345 347 345 347 346 347 350 348 348 351 352 350
302 302 303 304 305 308 307 310 310 308 315 318 317 317 320 318 321 322 323 325 326 325 325 325 324 326 327 328 332 336 337 339 342 345 346 345 348 346 345 348 348 348 347 350 351
302 302 302 304 307 305 311 308 308 308 319 323 322 323 322 323 325 323 322 324 326 326 326 324 325 325 325 327 331 335 335 337 340 344 347 346 347 343 345 349 350 349 348 347 350
301 302 301 301 302 306 307 306 306 312 323 324 324 324 325 326 326 325 323 323 326 326 327 326 324 324 324 326 329 333 335 336 337 343 344 347 348 343 344 345 349 350 349 347 345
301 301 301 302 303 305 305 305 312 322 322 323 325 326 326 326 326 325 323 324 324 326 327 327 324 324 325 326 328 331 333 335 337 339 344 344 345 341 341 344 342 345 348 348 345
301 301 302 302 306 303 304 308 318 320 322 322 324 326 325 324 325 326 325 325 326 328 328 326 325 324 324 326 327 330 335 338 339 340 341 342 344 341 338 338 340 338 343 348 346
302 302 303 303 303 303 305 312 317 320 321 323 324 325 325 325 325 326 326 325 325 327 328 327 326 325 324 325 328 329 333 337 340 338 338 339 341 340 338 337 336 337 340 345 347
302 303 305 303 307 307 310 312 317 318 320 320 321 323 325 325 323 325 326 327 326 327 328 328 328 326 325 325 327 330 333 334 336 336 336 335 338 337 337 339 339 339 341 343 346
301 304 306 306 309 313 312 312 315 316 318 321 322 323 323 323 324 325 326 326 326 327 329 329 329 328 326 326 327 329 331 333 335 342 339 336 337 339 339 337 336 339 342 343 345
305 305 307 309 314 314 314 313 314 314 315 318 320 321 322 323 324 324 325 326 326 327 329 329 329 327 327 325 326 328 330 333 334 335 337 338 337 336 336 337 336 336 341 341 344
304 307 306 312 314 314 315 315 314 314 313 314 317 318 319 322 323 324 324 325 326 327 329 330 330 329 325 326 326 328 330 333 335 339 336 336 335 334 335 335 335 335 334 335 342
305 304 305 307 310 311 314 314 314 314 314 315 315 316 318 320 322 322 323 322 322 326 328 330 330 332 330 326 325 326 328 330 332 334 342 337 336 334 334 334 334 339 339 339 344
305 307 306 310 309 312 314 315 315 314 315 315 317 317 317 319 320 321 323 322 324 324 328 330 329 330 331 330 327 326 325 327 329 334 335 335 335 334 333 334 334 335 338 341 345
304 307 309 308 313 314 315 315 314 314 314 316 317 319 319 319 320 322 322 324 326 326 330 335 336 333 330 329 329 328 326 326 327 328 334 334 333 334 335 334 333 332 334 340 346
304 307 307 306 306 309 309 311 313 313 315 317 318 317 318 320 321 321 321 322 322 326 327 330 336 334 334 331 330 329 328 326 326 327 328 330 332 333 333 331 332 332 332 340 345
304 303 303 304 304 306 308 309 310 313 313 313 316 317 318 320 320 321 322 324 326 327 329 332 335 338 337 334 332 333 331 329 327 327 328 329 330 331 331 333 334 333 337 340 344

GFSSW_850_thetae_003.txt.gz
Theta_e
309 309 309 309 311 312 313 315 316 317 317 317 318 319 319 320 320 320 325 326 324 320 320 338 341 337 340 340 341 339 345 343 343 346 340 338 340 342 344 345 346 347 349 350 352
309 309 309 309 309 309 310 311 313 315 316 317 317 318 319 319 320 323 323 323 322 320 322 335 335 337 338 339 340 341 347 344 340 344 342 340 339 342 344 345 346 347 349 351 351
309 309 309 310 309 310 310 310 311 312 314 316 317 317 318 319 323 326 324 321 320 320 326 331 332 336 337 337 336 339 347 344 341 341 342 341 340 340 343 345 345 347 348 349 351
308 308 309 310 310 310 310 311 311 311 311 313 315 317 317 317 327 327 322 320 321 320 329 330 331 332 336 335 334 338 342 341 341 340 343 341 341 341 340 342 343 346 346 348 350
306 307 308 309 310 310 311 311 311 312 312 312 313 314 316 325 324 325 322 321 321 323 330 328 329 329 334 333 334 336 338 338 338 340 341 343 342 340 339 341 343 346 346 347 349
306 307 307 308 309 309 310 311 312 312 312 312 312 312 314 325 323 324 324 324 327 327 326 326 328 328 330 332 335 336 336 336 337 339 341 344 342 342 340 341 344 347 347 346 347
305 306 307 307 308 309 310 311 312 313 313 313 312 311 320 324 323 323 326 326 327 327 326 325 325 326 327 331 332 335 336 338 338 338 341 341 343 342 341 344 345 347 347 346 347
304 305 306 306 307 308 309 310 312 313 314 313 312 312 324 325 326 324 323 324 325 326 326 325 324 326 327 330 333 335 336 339 340 339 339 341 345 344 343 343 344 346 348 347 346
303 304 304 305 307 308 309 310 312 313 314 313 315 323 325 327 326 325 326 326 325 325 327 326 326 325 327 330 333 336 337 338 341 340 343 343 346 346 345 343 344 345 347 348 347
302 303 304 304 306 307 309 310 312 313 316 316 322 329 326 327 327 327 327 325 324 326 325 324 325 328 328 332 335 338 338 340 345 340 344 343 346 347 346 346 342 344 345 347 347
302 303 303 304 305 306 309 314 321 327 327 326 328 326 327 326 328 325 327 324 324 326 327 325 326 327 329 332 334 337 339 339 340 339 343 345 344 346 347 346 345 343 343 345 347
301 302 303 304 305 306 309 315 316 313 316 318 320 322 322 323 323 325 326 325 324 327 327 326 326 328 331 332 334 335 338 340 340 340 342 343 345 345 350 348 346 345 344 344 345
301 301 302 304 305 311 310 313 313 313 317 319 320 321 321 321 322 323 323 325 326 326 328 326 327 328 330 332 334 335 337 339 340 345 345 344 346 345 345 348 348 345 345 344 344
302 301 301 304 309 309 313 313 312 312 319 323 323 322 322 323 323 322 325 323 327 327 326 328 328 327 328 331 333 334 335 338 339 342 347 342 347 346 344 346 350 348 346 345 345
303 303 301 301 303 309 312 311 311 313 323 326 325 325 326 327 329 327 326 324 327 327 327 327 327 328 328 329 332 333 334 337 338 342 347 343 343 346 343 345 347 349 348 346 345
303 303 302 305 308 309 309 310 313 320 324 326 326 327 328 327 327 327 326 325 325 327 328 327 327 327 328 329 331 332 334 336 337 340 343 344 345 347 345 344 344 346 348 348 347
303 303 303 302 308 310 310 312 318 321 325 326 326 327 327 327 328 328 327 327 327 327 328 328 328 328 327 327 329 331 334 337 339 340 340 340 345 349 345 342 342 342 342 346 348
303 303 306 307 309 307 308 314 318 323 324 326 326 327 327 328 327 328 328 327 327 328 329 329 329 328 327 327 328 330 333 335 340 340 340 339 342 343 343 341 339 339 338 341 347
303 307 308 310 310 309 310 314 318 321 324 324 325 326 327 327 327 326 328 329 328 327 329 330 330 329 328 327 327 330 333 334 336 338 339 339 339 339 341 341 340 338 337 337 344
304 309 309 310 312 312 313 315 318 319 321 322 324 325 327 327 327 327 328 328 329 328 328 329 331 330 328 327 327 327 331 334 337 342 341 339 339 340 340 339 338 339 337 338 340
309 309 311 311 313 313 315 315 316 316 318 319 322 324 325 326 326 327 327 327 328 329 329 328 330 330 330 328 327 327 329 332 334 336 338 340 340 338 340 340 338 338 336 337 340
307 312 311 311 315 315 318 317 316 318 317 317 318 320 323 325 325 326 327 328 328 328 329 329 330 332 331 330 329 328 328 329 336 340 336 339 338 338 337 337 337 337 336 337 339
307 309 309 308 311 312 314 315 317 318 318 318 317 318 319 321 323 325 326 326 326 328 329 329 330 332 333 331 329 328 328 329 330 335 342 339 337 337 336 336 336 336 335 335 339
306 311 310 309 309 311 312 314 314 315 316 316 317 318 318 318 321 322 324 325 325 325 327 331 331 332 334 333 329 328 328 327 329 333 335 335 337 338 337 336 336 335 335 337 338
306 309 309 312 312 311 313 315 315 316 316 315 317 317 318 319 319 320 322 325 325 325 327 330 333 332 331 332 331 329 327 327 327 330 332 334 335 337 338 337 336 334 333 334 335
306 307 307 308 309 309 309 311 310 312 313 314 315 317 318 319 321 320 321 324 326 326 328 330 335 334 332 331 330 330 330 327 327 327 329 330 332 334 335 335 335 334 333 333 334
304 305 306 306 308 309 308 309 310 310 309 311 314 315 319 319 318 319 321 323 324 328 329 333 335 338 338 335 334 333 331 330 330 329 328 328 330 331 334 336 337 334 334 333 334

GFSSW_850_thetae_006.txt.gz
Theta_e
309 309 309 310 310 310 311 311 312 313 315 316 317 316 317 318 320 320 320 323 326 322 321 339 339 341 339 338 341 343 343 347 345 342 338 339 339 343 347 346 350 350 349 351 352
310 310 310 310 310 310 311 311 311 311 312 314 315 316 316 317 318 319 319 323 324 324 320 330 338 339 336 338 340 342 345 345 343 343 340 339 339 340 342 344 346 349 350 350 352
308 308 309 310 310 311 311 311 311 312 312 312 314 315 315 316 318 326 326 324 323 322 322 327 333 335 336 338 339 342 343 343 343 342 341 339 339 338 342 343 345 351 351 350 352
306 307 308 308 310 310 311 311 311 312 312 312 312 313 314 315 325 327 323 321 321 320 324 326 330 334 336 339 338 339 340 341 342 340 342 340 340 339 341 342 344 349 351 350 350
305 306 307 307 308 309 310 311 312 312 312 313 312 312 312 323 326 325 324 323 321 320 326 329 330 333 334 336 336 336 341 340 339 339 341 340 341 340 339 342 344 346 350 351 350
304 305 306 306 307 308 309 310 311 313 313 313 313 312 312 321 324 325 325 325 325 324 327 330 329 332 333 334 336 335 336 338 337 338 339 343 341 339 339 340 343 345 347 350 350
304 304 304 306 306 307 309 309 310 312 313 314 313 312 317 319 326 325 325 327 326 327 325 328 329 330 331 332 333 334 336 337 337 337 340 341 343 342 340 339 343 345 345 346 349
304 305 305 306 306 307 308 309 310 311 313 313 313 312 320 320 325 325 325 326 326 328 327 326 327 327 329 330 331 333 335 337 337 338 339 340 344 340 341 340 341 345 344 345 346
303 304 305 306 307 307 309 310 311 311 312 313 314 320 325 324 326 327 326 324 324 325 327 327 327 326 327 329 331 333 335 336 337 339 339 340 346 343 342 342 341 343 345 345 346
303 303 304 305 306 307 309 310 312 314 315 316 318 329 328 328 328 326 325 325 326 326 325 327 327 328 328 330 331 333 336 337 338 341 339 340 346 342 342 342 342 341 343 345 345
305 304 305 306 306 306 309 312 322 326 327 328 328 324 326 328 326 328 328 327 326 325 328 328 328 328 330 330 332 333 337 337 338 342 340 344 348 344 341 345 342 343 342 344 346
307 305 306 307 307 307 310 318 317 316 316 317 321 327 328 328 328 329 326 327 326 327 328 327 327 327 330 331 332 334 336 338 339 342 342 342 350 345 348 346 344 342 342 342 343
308 306 305 307 307 315 314 313 315 315 316 318 319 319 323 327 326 326 326 328 326 326 329 327 327 327 329 331 332 333 335 337 339 341 341 340 342 347 347 345 344 344 343 342 343
306 305 304 306 311 313 313 315 314 314 317 322 324 322 321 322 324 323 324 326 328 327 326 328 328 327 327 330 332 334 334 335 337 341 344 342 344 349 345 350 346 345 344 344 343
304 304 303 303 305 307 313 313 312 314 322 328 326 325 324 324 326 325 323 324 325 326 328 326 328 327 327 329 331 334 334 335 336 338 345 347 346 346 348 349 351 348 346 345 345
304 304 304 306 308 311 311 312 313 318 322 327 327 326 325 325 327 328 324 324 326 326 328 328 328 328 328 328 330 332 334 334 335 337 341 343 344 345 348 346 344 348 347 346 346
304 304 305 304 308 311 312 312 317 320 326 327 328 328 329 328 327 329 328 327 327 326 328 328 328 328 329 328 329 330 332 336 337 339 340 340 346 348 347 346 344 343 346 347 347
305 305 306 308 310 309 310 314 318 323 323 328 328 328 328 330 329 328 329 328 327 327 328 329 328 328 329 327 328 329 330 336 339 340 339 340 342 344 346 344 343 343 343 346 348
304 307 308 310 311 312 313 313 319 321 325 326 327 327 328 328 328 328 329 329 327 327 330 328 329 330 329 329 328 328 329 331 334 335 338 339 339 339 341 345 343 340 341 342 347
304 308 312 312 312 312 313 315 317 319 322 324 325 326 327 329 328 329 329 330 329 328 328 329 330 330 330 329 329 328 330 329 332 338 341 339 341 344 344 346 345 344 342 339 339
307 311 311 312 312 314 316 315 316 316 317 318 320 322 325 328 329 329 329 329 329 330 329 328 330 330 331 330 329 327 328 329 331 334 339 342 341 343 347 348 347 344 340 338 338
307 311 312 313 315 316 317 317 316 318 318 320 320 320 321 323 327 328 329 329 329 329 329 330 329 332 330 331 330 329 329 328 330 337 335 337 339 338 343 344 341 341 338 338 337
306 307 308 309 313 314 314 316 317 318 320 320 320 320 321 320 323 324 327 328 329 329 329 330 331 333 330 331 332 330 328 328 328 331 336 337 338 338 340 341 342 340 338 339 338
306 309 308 310 310 312 313 313 314 314 317 318 319 320 321 320 321 322 323 325 327 328 327 329 330 334 333 333 332 333 330 330 329 329 332 334 338 338 341 341 341 340 338 337 336
306 308 308 310 311 312 313 314 314 316 315 316 318 318 319 320 320 320 320 322 325 328 330 329 332 332 330 330 332 332 330 330 330 331 332 332 334 340 340 342 340 337 336 336 337
305 306 307 308 308 309 308 310 311 313 314 313 315 316 316 318 319 319 319 323 325 326 327 327 332 332 333 332 331 333 332 330 329 330 331 331 332 334 337 336 341 337 337 338 336
304 304 306 307 308 308 308 308 309 310 311 311 311 312 315 316 315 315 316 318 322 325 330 330 329 335 335 332 332 333 333 332 331 329 329 330 332 334 334 337 340 340 338 338 336

GFSSW_850_thetae_009.txt.gz
Theta_e
308 309 310 310 310 310 311 311 311 311 312 313 314 315 315 317 316 316 318 318 320 321 324 323 335 328 343 348 350 347 347 350 347 343 338 341 346 349 350 351 350 350 349 351 350
308 308 308 309 310 311 311 311 311 312 312 312 312 313 313 315 317 317 318 318 322 326 326 324 332 340 340 341 338 339 345 345 343 342 338 339 347 347 351 351 350 351 351 350 351
306 307 308 308 309 309 310 311 312 312 312 312 312 312 312 313 315 322 325 322 324 325 324 324 325 332 338 339 336 338 341 341 342 342 339 338 339 342 347 350 350 351 352 351 352
306 306 307 307 308 308 309 310 311 312 312 312 312 312 312 312 320 327 325 323 323 322 323 323 323 326 330 333 335 337 339 340 341 341 341 338 338 342 341 349 350 351 352 353 352
307 307 307 307 307 308 308 309 310 311 312 312 312 312 311 314 319 321 323 323 322 321 320 323 324 326 329 332 334 336 337 339 341 342 340 339 339 341 342 349 350 350 352 353 352
307 307 307 307 307 308 308 309 310 310 311 311 312 312 311 318 320 325 324 324 324 323 320 323 326 328 331 332 332 334 335 339 340 339 342 340 338 341 344 351 351 351 349 352 352
309 308 307 307 306 308 309 309 309 311 311 311 312 311 310 316 321 326 326 324 325 326 324 325 328 330 330 330 333 332 332 333 335 336 338 342 340 339 344 346 351 351 350 350 351
310 310 310 309 307 308 309 310 310 311 311 311 311 311 313 320 321 322 326 324 326 327 327 324 327 329 329 329 330 330 328 329 333 334 336 340 344 342 341 345 348 349 350 351 350
310 310 310 310 309 309 310 311 311 312 311 311 312 314 325 323 323 322 324 325 326 326 327 327 326 326 327 325 325 326 327 329 332 335 338 338 339 339 338 344 344 347 348 349 350
310 310 310 311 310 308 310 311 313 319 320 318 317 325 322 323 325 325 326 327 325 325 325 326 327 323 323 322 325 326 328 329 332 336 337 339 339 341 340 339 344 344 345 346 348
308 309 309 311 311 308 310 312 318 321 325 327 326 320 320 323 327 327 326 325 325 324 323 325 324 325 324 323 325 328 329 330 332 337 338 343 343 342 339 341 340 344 344 345 346
307 307 308 311 311 309 311 315 315 314 315 315 316 320 326 327 328 327 327 325 325 325 324 323 325 325 327 327 326 327 329 330 332 338 337 344 345 342 340 337 339 341 344 345 345
304 305 307 310 310 314 315 315 315 314 314 314 316 316 317 323 327 328 328 328 326 325 324 324 326 327 327 327 329 327 328 330 332 336 339 344 347 344 338 340 340 342 343 345 345
303 304 304 307 312 312 313 314 314 313 312 317 319 319 318 319 323 327 328 327 327 325 324 324 326 326 325 325 327 328 329 331 332 333 338 341 346 345 342 348 346 344 342 343 345
305 305 304 304 306 311 311 313 312 313 318 324 323 322 320 319 324 326 328 327 326 327 323 323 326 326 326 324 325 329 330 331 332 332 339 341 340 340 344 346 343 342 342 342 343
305 305 305 306 306 311 311 312 312 315 319 323 325 322 320 320 321 324 326 325 325 325 325 325 327 324 326 327 326 327 329 330 331 331 333 337 340 341 342 346 344 344 343 342 342
305 305 305 305 308 309 310 312 313 316 323 326 325 324 322 321 321 322 323 322 321 321 322 323 324 326 326 325 324 325 324 328 330 332 331 330 339 340 342 341 343 344 344 344 343
305 303 305 307 308 309 312 312 314 320 320 323 323 325 324 324 323 323 323 322 322 321 322 322 323 325 327 325 324 323 324 326 330 332 332 330 335 335 340 342 344 346 346 345 345
304 303 304 307 310 310 312 315 315 318 320 322 319 324 326 327 327 324 325 323 322 322 323 322 324 327 327 327 325 324 324 324 324 328 330 332 331 332 339 340 341 342 344 344 344
304 307 305 311 312 312 313 314 315 316 316 316 316 319 319 320 325 327 325 326 327 326 325 324 326 326 328 327 326 324 325 324 325 325 330 331 332 335 336 341 342 341 341 342 342
306 308 307 310 311 313 314 314 314 314 315 316 317 318 318 319 319 320 326 327 327 328 325 324 324 325 326 326 325 325 323 322 323 325 327 331 332 331 334 340 342 341 341 341 342
305 307 304 306 309 313 314 315 315 316 316 317 317 317 318 319 319 319 320 322 328 328 327 325 324 324 325 326 327 326 324 322 324 323 326 326 328 332 331 340 341 340 341 340 340
305 306 306 308 309 311 313 314 315 314 314 315 317 318 319 319 320 320 321 321 322 324 327 327 326 325 327 325 326 326 326 323 323 322 324 329 329 329 329 335 338 338 342 340 339
305 306 306 307 309 310 311 311 313 312 313 314 315 316 318 318 318 319 320 322 321 321 326 329 325 326 327 327 326 328 327 326 324 323 323 324 324 326 331 337 336 339 339 337 339
304 306 306 307 309 307 309 310 310 310 311 311 314 314 314 317 317 319 319 318 319 321 323 322 326 326 327 328 327 327 328 327 326 324 324 324 324 325 327 337 337 339 339 337 338
303 305 305 304 305 306 307 308 308 308 309 310 311 313 312 314 315 317 316 316 317 318 316 318 325 329 330 329 328 328 329 330 327 326 326 326 326 327 326 329 341 339 336 336 338
303 304 304 305 304 306 307 307 308 308 309 310 311 311 312 313 312 313 313 313 314 316 317 318 323 329 327 330 330 329 327 329 330 328 327 326 326 326 326 328 336 337 338 335 335

GFSSW_850_thetae_012.txt.gz
Theta_e
307 308 308 309 309 310 311 311 311 311 311 312 312 312 312 315 317 317 317 317 317 318 320 326 335 337 352 354 351 349 345 347 345 345 345 349 349 349 351 350 349 350 348 347 346
307 307 307 308 308 309 309 310 311 311 311 312 312 312 312 312 315 318 320 320 317 318 320 322 327 334 342 343 352 345 343 345 343 341 343 348 349 350 350 349 350 349 348 347 349
307 307 307 307 307 308 308 309 310 310 311 312 312 312 312 312 313 322 323 325 317 318 325 327 325 333 340 339 338 338 338 340 342 342 346 349 350 350 349 351 349 350 349 349 349
310 309 308 308 308 308 308 308 309 310 310 311 311 312 312 311 314 326 323 323 320 322 325 325 326 324 323 326 331 333 334 338 341 341 342 346 349 351 350 350 349 347 349 349 349
311 311 311 310 308 308 309 309 309 309 310 310 311 311 311 311 315 321 322 322 322 323 323 322 324 323 323 325 329 330 332 335 339 341 339 338 347 351 349 350 350 350 351 350 350
315 313 311 312 311 310 310 311 310 309 309 310 310 310 310 311 319 319 323 320 323 321 321 320 323 323 324 327 328 331 331 331 336 340 340 337 340 344 349 350 351 350 351 351 350
313 314 314 312 312 312 312 311 311 311 310 310 310 309 309 316 319 324 325 325 324 324 324 322 320 325 326 326 329 331 329 329 329 336 338 339 344 350 350 350 351 351 351 351 350
310 310 311 313 313 312 312 313 312 311 311 311 310 309 311 318 319 319 318 323 324 326 324 324 320 323 326 329 327 326 325 326 328 331 338 338 343 350 350 351 352 352 352 352 351
309 308 309 311 312 312 313 314 312 312 312 312 311 312 315 318 321 322 320 325 325 325 326 326 324 325 325 323 321 321 324 325 326 329 339 338 339 343 350 350 350 350 352 352 351
306 307 308 310 312 312 316 312 314 319 322 321 317 320 317 319 324 323 321 325 323 325 327 327 326 321 320 319 322 323 324 324 326 328 336 337 338 339 350 350 350 350 349 349 351
304 304 305 309 311 312 314 314 315 317 315 316 320 316 317 320 321 325 324 323 322 325 321 323 320 324 322 320 322 323 324 324 326 328 337 337 337 338 345 349 349 350 349 349 349
305 305 305 307 309 311 313 313 313 312 311 313 315 316 318 319 323 327 324 323 323 321 320 320 321 321 322 322 322 323 323 324 325 327 336 338 339 339 341 343 346 347 348 349 349
305 305 306 307 310 310 313 313 313 313 310 312 314 315 316 316 320 324 326 326 321 321 321 321 321 322 324 324 324 322 322 324 325 327 335 341 342 340 338 340 342 344 345 347 348
305 305 305 306 310 310 312 312 312 313 309 312 314 316 315 317 318 321 327 325 324 323 323 322 322 323 324 325 323 322 325 325 326 327 329 340 341 344 340 338 337 342 342 343 345
304 304 304 305 305 308 309 311 312 313 317 321 319 319 317 317 320 322 326 326 325 323 321 322 323 323 325 325 324 324 324 327 327 327 328 332 338 339 342 341 343 339 341 343 343
304 303 303 305 305 309 310 311 312 311 316 319 321 317 316 317 319 324 324 326 326 324 323 322 323 323 324 324 324 324 323 325 326 326 328 333 339 335 342 342 341 342 342 342 343
303 302 302 303 305 306 307 310 309 312 317 322 319 317 316 316 317 319 326 325 325 321 324 325 325 323 322 322 322 321 319 321 325 327 328 325 333 335 338 341 341 342 340 341 342
303 302 302 303 303 304 310 308 311 315 315 316 315 316 318 317 317 318 318 326 323 318 318 322 323 321 322 323 321 319 320 322 323 326 326 326 329 332 335 341 343 343 342 341 340
303 302 302 305 305 308 310 311 310 312 314 314 314 316 316 318 316 317 317 319 323 321 318 316 320 321 322 323 323 323 318 320 319 323 325 326 328 327 329 336 341 342 341 342 341
303 304 303 308 307 310 308 311 310 313 313 314 314 314 316 316 316 316 315 319 320 321 320 318 319 320 323 322 322 321 320 321 315 322 324 324 327 330 329 331 335 339 341 342 341
303 305 302 306 305 309 310 309 312 312 313 314 314 315 315 316 316 316 317 318 319 321 320 320 319 322 321 321 323 323 321 318 318 319 322 322 325 324 327 328 332 340 343 343 343
303 302 302 306 304 305 310 309 312 312 313 313 314 315 315 316 316 317 318 317 319 319 318 319 319 321 323 321 323 324 323 318 322 320 320 323 325 328 326 327 332 337 341 344 344
303 304 304 306 303 305 307 310 310 311 310 311 312 312 313 315 316 316 317 318 316 318 320 320 322 323 321 320 320 322 323 322 315 316 321 323 323 323 323 324 335 338 339 341 342
303 302 305 305 306 304 306 309 309 309 310 310 309 312 312 312 313 314 317 316 315 317 318 314 318 319 324 323 322 322 323 322 321 323 322 322 323 324 324 329 328 336 340 341 341
303 302 304 302 304 304 305 306 308 309 308 308 309 310 312 311 313 315 315 314 314 316 313 313 315 319 321 323 324 324 324 324 322 322 322 323 319 320 320 321 324 328 337 339 341
303 304 303 303 303 302 304 305 307 308 308 307 308 310 309 311 312 313 312 313 312 312 312 311 315 317 322 324 325 326 326 326 325 324 323 320 320 319 321 324 327 330 333 338 337
303 303 303 303 301 301 303 304 305 306 307 307 308 308 309 310 309 311 312 312 311 312 312 312 313 316 319 322 325 326 327 326 325 324 324 322 321 320 321 323 324 328 330 333 339

GFSSW_850_thetae_015.txt.gz
Theta_e
308 307 307 307 307 307 308 309 309 310 310 311 312 312 312 312 313 314 316 317 316 320 325 330 341 346 347 352 353 346 344 346 343 344 346 349 350 350 350 349 347 347 345 344 345
310 309 308 307 307 307 307 308 309 309 309 310 311 312 312 312 313 316 320 321 318 316 318 329 344 351 353 354 353 346 342 344 339 340 348 349 349 350 350 349 349 348 346 346 347
312 311 311 310 309 308 308 308 308 309 309 309 310 311 312 312 313 319 323 324 321 316 317 319 334 348 345 341 352 347 349 343 341 339 347 348 349 350 349 349 348 347 347 348 348
314 315 313 311 311 311 309 308 309 309 309 309 309 310 311 311 313 324 322 322 318 316 319 323 326 337 329 338 341 335 341 345 340 336 348 348 349 349 348 347 348 343 344 347 349
312 312 313 313 313 312 311 311 309 310 310 309 309 309 310 311 315 320 321 322 318 316 319 326 326 324 320 322 327 335 334 332 333 335 344 348 349 349 348 349 347 346 346 347 348
311 310 310 312 313 314 313 313 313 311 310 310 309 308 309 308 319 319 318 317 322 320 324 324 323 325 322 322 324 328 329 330 331 331 346 348 349 349 348 349 349 347 348 348 348
310 310 309 310 312 314 315 315 315 313 311 311 310 308 308 315 319 319 321 321 319 322 322 321 321 323 323 322 326 328 329 326 327 329 342 346 349 351 349 349 349 349 349 348 348
307 307 308 309 310 312 316 317 314 315 313 312 310 308 309 315 317 318 321 320 320 321 322 323 323 322 324 325 325 325 324 326 327 327 331 342 344 346 349 350 350 349 349 349 349
307 307 307 308 309 310 316 315 313 313 314 316 312 310 312 314 315 318 320 320 321 324 322 324 325 323 323 323 321 319 325 325 325 325 336 336 340 348 350 350 350 350 350 350 350
307 306 307 308 308 311 314 313 314 320 320 321 319 318 317 317 325 325 322 320 322 324 323 323 323 318 317 318 323 323 324 323 324 327 335 336 338 349 350 350 350 350 350 351 350
305 306 307 307 308 310 312 314 314 315 313 315 320 318 318 319 319 324 325 320 320 322 320 322 322 320 320 319 321 322 323 323 324 327 335 335 336 350 349 350 350 350 350 351 350
303 303 304 306 307 310 310 310 309 308 308 314 316 315 317 317 317 321 325 319 319 319 318 319 321 321 321 320 321 321 322 322 322 323 327 331 335 349 349 349 350 351 351 351 351
302 302 302 304 308 310 310 310 309 309 307 311 314 314 314 316 316 319 322 320 320 320 318 320 319 320 322 322 321 320 321 322 322 324 328 336 339 339 349 349 349 349 349 350 350
301 301 302 303 306 307 310 309 309 311 307 312 312 313 314 316 316 318 322 321 321 321 319 318 319 321 321 322 321 320 321 323 323 324 324 335 339 339 341 349 347 348 349 348 348
301 301 301 301 302 304 308 310 311 311 318 321 315 315 315 317 318 317 319 325 322 320 319 320 320 321 321 322 321 323 323 323 325 324 325 327 333 332 337 342 341 344 346 347 348
302 301 301 303 302 305 304 309 312 310 314 318 317 314 314 315 317 319 320 326 324 322 321 321 322 321 321 322 322 323 323 321 322 321 324 325 327 328 339 339 338 338 342 344 345
302 302 301 302 303 302 303 309 308 310 314 318 314 314 314 315 316 319 321 322 322 323 323 322 323 320 321 321 321 321 318 320 319 322 325 323 327 328 331 338 338 338 338 342 342
303 302 301 305 308 303 304 306 309 313 312 313 314 313 315 315 315 316 322 323 323 320 322 322 323 322 320 321 321 318 319 316 320 321 324 322 325 326 331 334 339 339 339 339 341
302 302 302 306 305 308 309 307 308 310 313 314 313 314 315 315 314 315 313 323 324 317 320 320 322 320 323 321 321 319 320 319 318 319 319 322 324 325 327 329 334 338 339 340 340
303 303 304 305 305 306 306 308 308 311 311 313 313 314 315 314 315 314 315 315 317 320 317 317 318 317 321 321 320 321 318 321 312 321 322 320 323 324 326 326 331 337 338 340 340
303 303 303 305 306 308 307 307 310 311 312 312 313 314 314 315 315 315 316 316 318 318 317 317 316 320 318 318 319 318 321 317 316 315 321 322 322 322 325 326 327 332 338 341 340
303 300 303 304 303 301 304 305 310 310 310 311 312 312 313 314 314 315 316 316 316 317 319 317 311 319 319 318 320 320 320 316 319 318 316 320 321 322 324 325 324 327 332 336 337
303 303 304 305 303 302 303 306 308 308 309 309 310 310 311 313 314 315 315 316 315 316 318 317 315 316 316 318 318 318 319 319 318 315 322 320 320 318 322 323 324 329 333 331 333
303 301 304 304 303 303 303 304 307 308 309 307 308 310 311 311 311 313 314 316 313 314 318 313 312 316 318 317 319 319 321 321 319 320 322 322 320 322 320 320 320 326 328 330 334
302 300 302 301 302 301 302 303 307 307 308 307 307 308 310 311 312 313 313 312 313 314 311 310 313 315 317 317 319 320 320 322 320 321 322 323 318 319 320 320 321 327 327 328 336
302 303 303 302 302 301 301 304 306 305 306 308 307 307 308 309 310 311 310 312 312 311 310 308 314 313 316 318 321 322 321 322 322 322 321 321 317 318 320 321 320 324 326 327 335
302 302 303 304 303 303 301 303 303 304 306 307 306 305 306 307 308 308 308 309 310 311 309 311 311 313 316 317 318 322 322 323 323 321 321 322 320 317 318 318 318 322 324 326 326

GFSSW_850_thetae_018.txt.gz
Theta_e
311 311 311 309 308 308 308 307 307 308 309 310 311 311 312 313 313 313 316 317 316 317 327 334 340 343 346 351 352 351 345 346 343 349 347 350 349 349 349 347 346 345 344 342 342
314 314 313 311 311 310 309 308 308 308 308 309 310 310 311 312 314 316 319 318 316 316 325 334 343 346 349 353 352 346 343 344 339 339 345 349 349 349 349 347 348 347 345 342 342
313 312 313 314 314 312 311 310 309 309 309 309 309 309 310 311 313 318 321 322 320 316 324 331 344 347 350 349 352 349 350 342 342 341 340 349 349 349 349 347 347 347 345 343 342
311 311 310 310 311 313 313 312 312 311 310 310 309 309 309 309 314 322 321 322 324 317 319 337 349 349 340 344 348 342 341 346 343 340 345 347 349 349 349 347 345 346 343 343 342
310 311 310 309 309 309 312 314 313 312 311 310 310 309 308 309 314 319 321 320 322 318 319 328 345 343 330 331 340 340 339 337 336 335 335 347 348 348 349 347 347 347 344 344 343
308 308 308 308 309 309 310 312 313 313 313 312 310 309 307 306 316 316 318 318 318 317 319 322 336 339 323 321 329 327 330 334 331 330 335 347 348 348 349 348 347 345 346 345 345
307 307 307 308 308 309 311 312 313 315 315 313 311 309 307 312 316 317 318 317 319 316 321 324 324 324 324 321 323 325 326 326 326 327 338 346 350 350 348 348 346 346 346 347 346
305 306 307 307 307 309 312 313 316 317 316 313 310 309 308 314 314 314 319 317 317 319 317 320 324 324 322 323 323 323 323 325 327 327 338 346 351 349 348 348 347 346 346 347 347
303 303 303 304 306 308 311 312 314 314 315 316 312 308 311 313 314 315 315 320 319 319 321 322 323 323 322 321 320 319 324 324 325 325 332 345 340 346 349 348 348 347 347 347 348
302 302 302 303 304 310 311 312 314 319 320 319 319 314 316 317 322 317 316 317 316 320 321 324 323 318 315 317 320 323 322 323 325 327 336 341 336 344 348 348 348 348 348 348 348
302 302 302 303 303 310 311 313 312 313 311 318 321 317 317 317 321 322 323 317 317 318 319 320 319 320 316 317 321 322 322 325 323 324 331 333 338 348 348 349 348 348 348 348 348
301 301 301 303 302 309 311 309 306 306 307 313 316 314 317 318 317 321 323 317 318 318 317 316 322 319 318 318 320 321 321 321 322 323 324 323 328 347 348 349 349 349 349 349 349
300 301 301 302 303 305 308 308 306 308 306 310 313 313 314 316 315 318 321 318 316 317 318 321 319 321 322 320 320 319 320 321 323 323 323 330 332 335 348 348 349 349 349 349 349
300 301 301 301 303 302 307 307 305 310 306 311 310 312 313 315 314 318 321 320 318 319 316 318 318 321 319 321 320 319 319 322 322 321 322 330 330 336 345 350 348 349 349 349 349
300 301 302 302 301 302 304 303 307 309 318 319 312 313 314 316 316 315 319 320 319 318 318 319 318 319 320 321 319 322 320 320 321 321 321 326 325 325 341 350 349 347 348 350 349
299 301 302 302 302 305 303 303 310 311 317 317 314 313 313 314 314 317 319 323 321 320 320 320 319 320 319 320 320 320 322 317 317 318 321 322 323 323 336 347 349 347 348 348 348
300 301 302 306 305 307 305 306 307 311 313 315 314 312 313 313 314 316 317 321 320 320 319 321 322 320 319 319 319 320 318 319 320 320 324 319 323 326 326 336 338 344 346 347 348
300 301 303 305 305 305 304 305 308 312 310 312 313 312 313 313 314 315 317 321 320 320 319 321 321 321 319 319 319 318 317 318 321 319 322 319 323 323 324 331 336 337 339 342 345
300 301 304 304 305 305 308 305 307 308 311 312 312 314 314 314 314 314 313 318 322 317 321 320 321 320 320 319 321 317 320 317 316 317 317 319 321 323 325 325 331 335 336 337 340
301 301 303 304 305 305 305 306 307 309 310 311 313 313 314 313 314 313 314 315 317 317 315 318 321 318 322 320 319 317 316 319 311 320 320 319 320 324 324 327 326 332 336 337 337
302 302 303 303 305 307 302 304 307 309 310 310 311 312 312 313 313 313 315 316 316 317 315 314 314 318 317 319 322 317 317 315 316 314 318 319 321 318 323 324 325 326 333 335 338
302 299 304 305 301 300 303 303 308 308 308 308 309 311 312 313 314 314 316 316 314 316 317 317 311 316 318 317 320 322 321 315 319 317 313 315 320 320 320 323 324 325 327 330 333
302 301 303 303 300 300 303 303 305 308 308 307 308 309 310 311 312 314 313 314 312 314 318 315 313 315 315 317 317 317 319 317 317 314 319 319 321 322 319 321 324 324 327 330 332
302 301 302 303 302 301 301 302 304 306 309 307 307 308 309 309 310 311 313 313 312 313 317 312 311 313 317 316 316 318 318 316 318 320 321 321 321 321 320 320 321 323 326 327 329
302 299 302 301 300 302 300 301 305 305 305 307 308 306 307 309 309 311 311 310 311 313 311 310 314 314 315 315 316 317 318 319 316 319 320 321 321 320 319 318 320 326 325 325 326
302 302 302 302 302 303 300 301 304 303 304 306 308 307 305 307 309 309 308 309 310 309 309 307 313 312 314 316 316 317 319 320 319 318 318 319 318 317 319 321 321 323 324 324 326
302 302 303 302 303 302 301 303 303 302 303 305 306 304 304 305 307 307 307 307 307 308 308 309 311 312 315 315 315 318 318 319 319 318 319 320 320 319 318 317 318 321 324 325 326

GFSSW_850_thetae_021.txt.gz
Theta_e
317 317 316 316 314 312 311 310 309 309 309 310 310 311 311 312 313 314 315 317 316 315 323 333 335 342 347 349 350 349 354 353 347 350 350 351 351 350 349 347 346 346 346 345 345
315 315 314 313 314 315 314 312 311 310 310 309 309 310 310 311 312 315 320 318 317 315 320 334 344 346 349 349 351 350 353 349 344 345 341 350 351 351 350 347 347 347 346 344 345
313 313 313 312 311 311 312 315 313 312 311 310 310 309 309 310 312 318 320 320 319 316 315 334 345 347 348 352 351 352 354 348 344 341 340 346 350 350 350 350 347 347 346 345 345
309 309 309 309 309 309 310 312 314 315 313 312 310 310 308 308 316 318 321 322 321 315 317 346 346 345 346 349 351 353 349 347 342 340 342 346 350 350 350 349 347 347 346 345 345
307 308 308 308 308 308 310 311 312 314 315 313 312 310 308 308 312 317 319 318 320 317 333 343 344 344 343 346 345 351 344 340 339 338 336 340 349 350 350 348 347 347 346 345 345
303 303 304 305 306 307 309 310 312 315 317 315 313 311 307 308 313 316 317 317 320 332 337 341 344 340 336 328 340 337 335 329 332 334 331 340 344 349 349 349 349 348 347 345 345
302 302 302 302 303 305 307 311 314 315 318 317 314 311 308 312 313 315 316 317 319 319 334 330 330 337 327 325 327 326 326 328 328 329 330 336 348 349 349 349 349 348 347 346 345
302 302 302 303 303 303 310 310 313 315 316 316 313 310 309 314 313 317 318 315 317 319 323 325 325 331 324 323 324 326 326 328 329 329 332 338 336 346 349 349 349 348 347 347 347
301 301 302 302 303 304 310 312 313 317 318 316 314 309 311 312 312 313 318 316 317 323 322 322 323 324 322 324 324 325 329 328 330 329 337 343 337 340 349 349 349 348 347 347 347
300 300 301 301 302 305 309 312 313 313 319 318 316 311 313 316 314 313 315 318 321 322 322 322 323 325 324 324 325 325 325 327 330 330 332 341 341 342 349 349 349 349 347 347 347
300 300 301 301 301 304 309 311 311 312 309 320 322 317 318 317 321 318 313 318 317 322 322 323 323 326 324 323 323 323 325 327 328 328 333 338 341 344 349 350 350 349 348 347 347
299 300 300 301 302 304 308 308 304 305 308 312 314 313 319 317 317 321 314 315 317 321 322 323 324 323 323 322 323 322 324 327 326 326 327 330 333 335 347 350 350 350 349 348 348
299 299 300 301 302 302 304 307 304 303 308 310 311 311 313 316 316 319 316 316 319 320 321 324 323 324 323 323 323 322 323 325 327 326 326 328 331 333 345 347 349 350 350 349 349
299 299 300 300 302 301 306 306 303 305 312 316 312 313 313 316 316 317 318 319 319 321 321 322 324 324 324 324 323 322 322 323 325 326 330 330 334 336 338 349 349 349 350 350 349
299 300 301 302 303 305 305 305 303 307 316 318 312 312 313 317 316 317 318 320 321 321 322 323 324 323 324 324 324 322 322 323 325 327 327 328 332 334 340 348 350 349 349 349 349
300 300 301 304 304 304 305 304 308 313 317 319 313 314 315 315 316 316 318 320 321 321 322 323 321 324 324 324 324 325 324 325 325 327 328 329 329 333 334 339 345 348 349 349 349
300 300 303 304 304 305 305 304 312 315 316 317 316 315 315 316 316 318 319 322 324 322 323 323 323 322 324 323 324 324 325 327 326 327 329 330 329 331 332 337 337 345 347 349 350
300 301 303 303 304 304 306 308 312 312 313 313 314 315 316 316 317 317 320 322 324 322 323 324 324 324 323 324 323 324 324 324 326 327 327 328 330 331 330 330 335 338 343 346 349
300 301 303 303 303 304 307 307 310 311 311 312 314 317 317 316 316 317 319 322 324 323 324 324 324 323 323 323 324 324 326 324 323 322 325 327 328 328 329 331 333 336 337 341 345
301 301 303 303 305 305 307 307 309 309 310 311 314 314 317 316 318 318 319 317 321 320 320 324 326 324 324 324 324 323 324 323 324 324 325 326 328 329 332 332 332 335 336 337 338
301 302 303 303 304 305 307 306 306 308 309 311 312 313 314 315 316 316 318 316 316 319 320 321 322 322 325 324 325 322 324 324 324 324 324 324 325 329 332 336 336 334 334 335 336
302 304 303 302 303 303 304 304 304 307 309 309 310 312 313 314 315 317 319 317 313 318 321 319 320 325 324 324 325 325 325 325 325 326 324 325 325 326 329 332 334 333 333 334 338
302 301 302 302 304 304 303 304 304 307 308 310 309 309 311 313 314 315 316 314 313 318 319 318 321 327 325 324 322 325 326 325 325 326 327 324 325 326 327 327 328 329 329 329 330
302 303 302 302 301 302 303 304 305 305 307 308 309 308 310 312 313 313 314 313 312 316 317 316 318 324 328 325 322 324 322 325 325 327 326 327 326 326 327 328 328 328 329 328 326
302 302 301 304 303 303 304 303 305 305 304 306 307 308 307 310 312 313 312 312 313 312 314 316 319 318 318 318 319 320 320 321 323 325 328 326 326 326 327 329 328 328 329 326 326
302 302 302 301 302 304 302 303 304 304 304 304 309 306 306 308 308 310 309 312 312 312 312 313 317 318 318 317 318 319 320 320 321 322 322 323 324 325 324 325 327 326 326 327 326
301 302 302 303 303 304 304 303 303 303 304 305 305 304 305 306 305 306 306 307 308 309 311 313 316 317 318 318 319 320 320 321 321 322 322 324 324 324 325 326 326 326 327 327 326